Skip Page Navigation
NASA JPL Caltech
NASA Logo - Jet Propulsion Laboratory + View the NASA Portal
+ Center for Near-Earth Object Studies
JPL Home Earth Solar System Stars & Galaxies Technology
JPL Solar System Dynamics
BODIES ORBITS EPHEMERIDES TOOLS PHYSICAL DATA DISCOVERY FAQ SITE MAP
IMPORTANT: The SSD Announcement email list is now available. Major changes are coming in the near future, including possible hostname and/or URL changes. To be notified of such changes, subscribe to this email list.

Please visit this page for more details.


JPL Small-Body Database Browser
Search: [ help ]  
46425 (2002 JP44)
Classification: Main-belt Asteroid          SPK-ID: 2046425
Ephemeris | Orbit Diagram | Orbital Elements | Mission Design | Physical Parameters | Discovery Circumstances | Close-Approach Data ]

[ show orbit diagram ]
Orbital Elements at Epoch 2458600.5 (2019-Apr-27.0) TDB
Reference: JPL 14 (heliocentric ecliptic J2000)
 Element Value Uncertainty (1-sigma)   Units 
e .1472064957614474 1.0099e-07  
a 2.527470615273517 2.0306e-08 au
q 2.155410522859073 2.5375e-07 au
i 13.62850640812168 7.7553e-06 deg
node 227.171689715176 2.3833e-05 deg
peri 189.4932923832157 3.0142e-05 deg
M 229.49256425894 1.7967e-05 deg
tp 2459132.559687900135
(2020-Oct-10.05968790)
7.4163e-05 TDB
period 1467.667237168666
4.02
1.7687e-05
4.842e-08
d
yr
n .2452872087643586 2.9561e-09 deg/d
Q 2.899530707687961 2.3296e-08 au
  Orbit Determination Parameters
   # obs. used (total)      482  
   data-arc span      7380 days (20.21 yr)  
   first obs. used      1998-04-21  
   last obs. used      2018-07-05  
   planetary ephem.      DE431  
   SB-pert. ephem.      SB431-N16  
   condition code      0  
   norm. resid. RMS      .66479  
   source      ORB  
   producer      Otto Matic  
   solution date      2018-Oct-03 23:53:54  

Additional Information
 Earth MOID = 1.1674 au 
 Jupiter MOID = 2.46893 au 
 T_jup = 3.399 
[ show covariance matrix ]

Ephemeris | Orbit Diagram | Orbital Elements | Mission Design | Physical Parameters | Discovery Circumstances | Close-Approach Data ]

Physical Parameter Table
Parameter Symbol Value Units Sigma Reference Notes
absolute magnitude H 14.7   n/a MPO449294  
diameter diameter 3.096 km 0.564 urn:nasa:pds:neowise_diameters_albedos::2.0[mainbelt] (http://adsabs.harvard.edu/abs/2011ApJ...741...68M)  
geometric albedo albedo 0.320   0.164 urn:nasa:pds:neowise_diameters_albedos::2.0[mainbelt] (http://adsabs.harvard.edu/abs/2011ApJ...741...68M)  

46425 (2002 JP44)          Discovered 2002-May-09 by LINEAR at Socorro
Reference: 20020822/Numbers.arcLast Updated: 2004-04-19

[ show close-approach data ]
Alternate Designations
 2002 JP44 = 1998 HJ68 = 2000 RF11 
Ephemeris | Orbit Diagram | Orbital Elements | Mission Design | Physical Parameters | Discovery Circumstances | Close-Approach Data ]
ABOUT SSD CREDITS/AWARDS PRIVACY/COPYRIGHT GLOSSARY LINKS
FirstGov
(server date/time)  
NASA Home Page
Site Manager:   Ryan S. Park
Webmaster  Alan B. Chamberlin